www.pogodaiklimat.ru

Погода и климат >> Архив погоды >> Кувейт >> Sulaibiya


ПОГОДА в Sulaibiya

  • Прогноз погоды в Sulaibiya
  • Монитор погоды в Sulaibiya
  • Климат города

АРХИВ ПОГОДЫ в Sulaibiya

Время (UTC), дата Ветер
(напр.,м/с)
 
Видим.   Явления Облачность Т
(С)
Тd
(С)
f
(%)
Тe
(С)
Тes
(С)
Комфортность P
(гПа)
Po
(гПа)
Тmin
(С)
Tmax
(С)
R
(мм)
R24
(мм)
S
(см)
03 16.09 СЗ 7 н/о н/о +31.8 +7.4 22 +30 +30 жарко 1006.2 1006.0
06 16.09 СЗ 6 н/о н/о +37.4 +5.0 14 +35 +35 очень
жарко
1006.7 1007.0
09 16.09 СЗ 7 н/о н/о +44.7 +3.1 8 +41 +41 опасность
перегрева
1004.5 1005.0
12 16.09 СЗ 6 н/о н/о +46.7 +2.1 7 +43 +43 опасность
перегрева
1003.0 1003.0
15 16.09 СЗ 6 н/о н/о +43.6 +2.6 8 +40 +40 очень
жарко
1002.9 1003.0
18 16.09 СЗ 7 н/о н/о +40.2 +4.3 11 +37 +37 очень
жарко
1004.6 1005.0
21 16.09 СЗ 7 н/о н/о +37.2 +4.7 13 +34 +34 очень
жарко
1004.2 1004.0 +31.5 +46.8
00 17.09 СЗ 5 н/о н/о +33.5 +3.8 15 +31 +31 жарко 1003.8 1004.0
03 17.09 СЗ 6 н/о н/о +31.7 +3.9 17 +29 +29 жарко 1004.8 1005.0
06 17.09 С 3 н/о н/о +39.0 +4.4 12 +36 +36 очень
жарко
1005.4 1005.0
09 17.09 С 7 н/о н/о +46.0 +2.8 7 +43 +43 опасность
перегрева
1003.5 1004.0
12 17.09 С 7 н/о н/о +47.1 -1.3 5 +43 +43 опасность
перегрева
1001.8 1002.0
15 17.09 С 5 н/о н/о +43.5 +2.5 8 +40 +40 очень
жарко
1002.2 1002.0
18 17.09 СЗ 5 н/о н/о +40.3 +3.3 10 +37 +37 очень
жарко
1003.7 1004.0
21 17.09 СЗ 6 н/о н/о +38.2 +4.4 12 +35 +35 очень
жарко
1003.5 1004.0 +31.2 +47.6
00 18.09 СЗ 2 н/о н/о +32.4 +5.8 19 +30 +30 жарко 1004.1 1004.0
03 18.09 З 3 н/о н/о +29.9 +5.8 22 +28 +28 жарко 1005.0 1005.0
06 18.09 С 3 н/о н/о +39.4 +4.7 12 +36 +36 очень
жарко
1005.8 1006.0
09 18.09 С 5 н/о н/о +45.7 +3.5 8 +43 +43 опасность
перегрева
1004.1 1004.0
12 18.09 СВ 3 н/о н/о +45.6 +5.9 9 +43 +43 опасность
перегрева
1002.8 1003.0
15 18.09 В 1 н/о н/о +40.4 +9.1 15 +38 +38 очень
жарко
1003.4 1003.0
18 18.09 СЗ 2 н/о н/о +35.7 +19.4 38 +34 +34 очень
жарко
1006.0 1006.0
21 18.09 ЮВ 3 н/о н/о +32.0 +28.9 84 +55 +55 опасность
перегрева
1006.3 1006.0 +29.8 +46.7
00 19.09 Ю 2 н/о н/о +30.2 +30.0 99 +56 +56 опасность
перегрева
1005.8 1006.0
03 19.09 ЮЗ 5 н/о н/о +29.8 +24.5 73 +42 +42 опасность
перегрева
1005.7 1006.0
06 19.09 В 2 н/о н/о +37.6 +16.0 28 +39 +39 очень
душно
1007.2 1007.0
09 19.09 В 2 н/о н/о +41.6 +19.1 27 +45 +45 опасность
перегрева
1005.6 1006.0
12 19.09 В 2 н/о н/о +42.5 +18.8 26 +46 +46 опасность
перегрева
1004.2 1004.0
15 19.09 В 2 н/о н/о +37.2 +19.6 36 +42 +42 опасность
перегрева
1004.5 1005.0
18 19.09 ЮВ 2 н/о н/о +33.2 +22.0 52 +42 +42 опасность
перегрева
1006.2 1006.0
21 19.09 ЮВ 3 н/о н/о +30.6 +25.4 74 +45 +45 опасность
перегрева
1005.6 1006.0 +28.8 +42.9
00 20.09 ЮЗ 2 н/о н/о +28.8 +24.6 78 +41 +41 опасность
перегрева
1005.5 1006.0
03 20.09 ЮЗ 4 н/о н/о +29.6 +24.0 72 +41 +41 опасность
перегрева
1006.1 1006.0
06 20.09 ЮЗ 4 н/о н/о +37.7 +18.0 32 +41 +41 опасность
перегрева
1006.7 1007.0
09 20.09 СВ 2 н/о н/о +44.9 +8.5 12 +43 +43 опасность
перегрева
1005.6 1006.0
12 20.09 В 3 н/о н/о +45.2 +8.7 12 +43 +43 опасность
перегрева
1003.6 1004.0
15 20.09 СВ 2 н/о н/о +39.6 +15.1 24 +41 +41 опасность
перегрева
1003.9 1004.0
18 20.09 ЮЗ 2 н/о н/о +34.8 +17.6 36 +38 +38 очень
душно
1005.8 1006.0
21 20.09 З 3 н/о н/о +33.0 +13.6 31 +34 +34 очень
жарко
1005.6 1006.0 +28.6 +47.5
00 21.09 З 3 н/о н/о +31.2 +6.8 22 +30 +30 жарко 1005.6 1006.0
03 21.09 З 3 н/о н/о +29.3 +7.2 25 +28 +28 жарко 1006.7 1007.0
06 21.09 СЗ 2 н/о н/о +39.4 +8.7 16 +38 +38 очень
жарко
1008.1 1008.0
09 21.09 СВ 4 н/о н/о +43.9 +4.0 9 +41 +41 опасность
перегрева
1007.2 1007.0
12 21.09 СВ 4 н/о н/о +44.2 +3.8 9 +41 +41 опасность
перегрева
1005.8 1006.0
15 21.09 СВ 2 н/о н/о +39.5 +3.8 11 +36 +36 очень
жарко
1006.1 1006.0
18 21.09 ЮЗ 2 н/о н/о +34.0 +3.0 14 +31 +31 жарко 1007.8 1008.0
21 21.09 ЮЗ 2 н/о н/о +31.0 +2.9 17 +29 +29 жарко 1007.6 1008.0 +28.9 +44.8
00 22.09 ЮЗ 3 н/о н/о +29.5 +2.2 17 +27 +27 жарко 1007.2 1007.0
03 22.09 ЮЗ 3 н/о н/о +28.6 +3.5 20 +27 +27 жарко 1008.2 1008.0
06 22.09 З 3 н/о н/о +38.6 +4.3 12 +36 +36 очень
жарко
1009.1 1009.0
09 22.09 СЗ 5 н/о н/о +42.9 +2.2 8 +39 +39 очень
жарко
1008.5 1009.0
12 22.09 З 3 н/о н/о +45.1 0.0 6 +41 +41 опасность
перегрева
1006.5 1007.0
15 22.09 СВ 3 н/о н/о +41.1 +5.5 12 +38 +38 очень
жарко
1007.2 1007.0
18 22.09 В 1 н/о н/о +36.1 +7.5 17 +34 +34 очень
жарко
1008.1 1008.0
21 22.09 ЮЗ 3 н/о н/о +32.6 +6.3 19 +31 +31 жарко 1008.0 1008.0 +28.4 +45.8

 

Местоположение метеостанции Sulaibiya (Кувейт): широта 29.27 долгота 47.72 высота над уровнем моря 55 м.

В архиве по умолчанию представлена погода в Sulaibiya за последнюю неделю. Архивные данные за месяц целиком и за предыдущие месяцы, начиная с января 2011 года, Вы можете получить, выбрав интересующий диапазон дат из раскрывающегося списка и нажав кнопку "Ввод!".


*Определитесь, кто Вы:
робот инопланетянин человек

Внимание! Время в таблицах - всемирное. Для получения местного времени необходимо прибавить поправку, которая в Sulaibiya равна 3 ч.

Смотрите также архив погоды в соседних городах и на ближайших метеорологических станциях:

Погода в Jahra (Кувейт) (7 км)
Погода в Experimental Farm (Кувейт) (21 км)
Погода в Kuwait (Кувейт) (25 км)
Погода в Minagish (Кувейт) (29 км)
Погода в Kuwait City (Кувейт) (33 км)
Погода в Al-Shuaiba (Кувейт) (38 км)
Погода в Jal Aliyah (Кувейт) (40 км)
Погода в Sabriyah (Кувейт) (55 км)
Погода в Failaka Island (Кувейт) (59 км)
Погода в Mitribah (Кувейт) (70 км)

Пояснения к столбцам:

Ветер - указаны скорость ветра в м/с - средняя за 10 мин, порывы в срок и между сроками (в фигурных скобках) и направление, откуда дует ветер: С - северный, СВ - северо-восточный, В - восточный, ЮВ - юго-восточный, Ю - южный, ЮЗ - юго-западный, З - западный, СЗ - северо-западный.
Видимость - горизонтальная дальность видимости в метрах или километрах. При видимости от 1 до 10 км при отсутствии осадков обычно наблюдается дымка, при ухудшении видимости до 1 км и менее - туман. В сухую погоду видимость может ухудшаться дымом, пылью или мглою.
Явления - указаны атмосферные явления, наблюдавшиеся в срок или в последний час перед сроком; фигурными скобками обозначены явления, наблюдавшиеся между сроками (за 1-3 часа до срока); квадратными скобками обозначены град или гололедные отложения с указанием их диаметра в мм.
Облачность - указаны через наклонную черту общая и нижняя облачность в баллах и высота нижней границы облаков в метрах; квадратными скобками обозначены формы облаков: Ci - перистые, Cs - перисто-слоистые, Cc - перисто-кучевые, Ac - высококучевые, As - высокослоистые, Sc - слоисто-кучевые, Ns - слоисто-дождевые, Cu - кучевые, Cb - кучево-дождевые. Подробнее классификацию облаков см. в Атласе облаков (PDF).
T - Температура воздуха - температура, измеренная на высоте 2 м над землей.
Td - Температура точки росы - температура, при понижении до которой содержащийся в воздухе водяной пар достигнет насыщения.
f - Относительная влажность воздуха - влажноcть воздуха, измеренная на высоте 2 м над землей.
Te - Эффективная температура - температура, которую ощущает одетый по сезону человек в тени. Характеристика душности погоды. При расчете учитывается влияние влажности воздуха и скорости ветра на теплоощущения человека.
Tes - Эффективная температура на солнце - температура, которую ощущает человек, с поправкой на солнечный нагрев. Характеристика знойности погоды. Зависит от высоты солнца над горизонтом, облачности и скорости ветра. Ночью, в пасмурную погоду, а также при ветре 12 м/с и более поправка равна нулю.
P - Атмосферное давление - приведенное к уровню моря атмосферное давление.
Po - Атмосферное давление - измеренное на уровне метеостанции атмосферное давление.
Tmin - Минимальная температура - минимум температуры воздуха на высоте 2 м над землей.
Tmax - Максимальная температура - максимум температуры воздуха на высоте 2 м над землей.
R - Количество осадков - Количество выпавших осадков за период времени, мм. При наведении курсора мыши на число - период времени, за который выпало указанное количество осадков.
R24 - Количество осадков - Количество выпавших осадков за 24 часа, мм.
S - Снежный покров - Высота снежного покрова, см. При наведении курсора мыши на число - состояние снежного покрова и степень покрытия местности в баллах.